Le nostre stazioni meteo in Italia

Pubblicità
Il mio iltempo24.it
Salsburgh, Gran Bretagna (99024): Temperatura & dewpoint: 17.01.2017 18:00:00 - 23.01.2017 18:00:00 (GMT)Salsburgh, Gran Bretagna (99024): velocità del vento & gusts: 17.01.2017 18:00:00 - 23.01.2017 18:00:00 (GMT)Salsburgh, Gran Bretagna (99024): direzione del vento: 17.01.2017 18:00:00 - 23.01.2017 18:00:00 (GMT)Salsburgh, Gran Bretagna (99024): precipitazioni: 17.01.2017 18:00:00 - 23.01.2017 18:00:00 (GMT)
Data & Tempo tt [°C] td [°C] ff [km/h] ff [kn] fx [km/h] fx [kn] dd rr [mm]
23.01.2017 18:00:00 2,3 2,2 24 13 - - S 0,0
23.01.2017 17:00:00 1,9 1,8 24 13 - - S 0,0
23.01.2017 16:00:00 2,6 2,3 24 13 - - S 0,0
23.01.2017 15:00:00 2,9 2,4 18 10 - - S 0,0
23.01.2017 14:00:00 2,5 1,9 16 9 - - S 0,0
23.01.2017 13:00:00 2,1 0,6 11 6 - - SSE 0,0
23.01.2017 12:00:00 2,1 -0,1 11 6 - - S 0,0
23.01.2017 11:00:00 1,1 -1,3 13 7 - - S 0,0
23.01.2017 10:00:00 0,1 -1,9 11 6 - - S 0,0
23.01.2017 09:00:00 -0,9 -2,3 11 6 - - S 0,0
23.01.2017 08:00:00 -1,4 -2,4 9 5 - - S 0,0
23.01.2017 07:00:00 -1,2 -2,0 9 5 - - S 0,0
23.01.2017 06:00:00 -1,2 -1,9 9 5 - - S 0,0
23.01.2017 05:00:00 -0,2 -0,7 9 5 - - S 0,0
23.01.2017 04:00:00 0,3 -0,1 11 6 - - SSO 0,0
23.01.2017 03:00:00 0,8 0,6 13 7 - - SSO 0,0
23.01.2017 02:00:00 1,0 0,9 8 4 - - SSO 0,0
23.01.2017 01:00:00 1,1 1,0 9 5 - - SO 0,0
23.01.2017 00:00:00 1,0 1,0 9 5 - - SSO 0,0
22.01.2017 23:00:00 0,9 0,9 9 5 - - SSO 0,0
22.01.2017 22:00:00 0,9 0,9 8 4 - - SSO 0,0
22.01.2017 21:00:00 0,8 0,8 8 4 - - SO 0,2
22.01.2017 20:00:00 0,9 0,9 9 5 - - SO 0,0
22.01.2017 19:00:00 0,8 0,8 11 6 - - SO 0,0
22.01.2017 18:00:00 0,8 0,8 11 6 - - SSO 0,0
22.01.2017 17:00:00 0,7 0,7 8 4 - - SSO 0,0
22.01.2017 16:00:00 0,8 0,8 15 8 - - OSO 0,0
22.01.2017 15:00:00 0,9 0,9 11 6 - - SO 0,0
22.01.2017 14:00:00 0,7 0,7 11 6 - - SO 0,0
22.01.2017 13:00:00 0,7 0,7 8 4 - - SO 0,0
22.01.2017 12:00:00 0,5 0,5 0 0 - - N 0,2
22.01.2017 11:00:00 0,0 0,0 0 0 - - N 0,0
22.01.2017 10:00:00 0,0 0,0 0 0 - - N 0,0
22.01.2017 09:00:00 -0,2 -0,2 0 0 - - N 0,0
22.01.2017 08:00:00 -0,5 -0,5 0 0 - - N 0,0
22.01.2017 07:00:00 -0,3 -0,3 0 0 - - N 0,0
22.01.2017 06:00:00 -0,3 -0,3 0 0 - - N 0,0
22.01.2017 05:00:00 -0,2 -0,2 0 0 - - N 0,0
22.01.2017 04:00:00 -0,2 -0,2 0 0 - - N 0,0
22.01.2017 03:00:00 -0,3 -0,3 0 0 - - N 0,0
22.01.2017 02:00:00 -0,5 -0,5 0 0 - - N 0,0
22.01.2017 01:00:00 -0,6 -0,6 0 0 - - N 0,0
22.01.2017 00:00:00 -0,7 -0,7 0 0 - - N 0,0
21.01.2017 23:00:00 -0,9 -0,9 4 2 - - E 0,0
21.01.2017 22:00:00 -0,4 -0,4 9 5 - - E 0,0
21.01.2017 21:00:00 0,0 0,0 13 7 - - E 0,0
21.01.2017 20:00:00 -0,2 -0,2 13 7 - - E 0,0
21.01.2017 19:00:00 -1,0 -1,0 15 8 - - E 0,0
21.01.2017 18:00:00 -1,0 -1,0 16 9 - - E 0,0
21.01.2017 17:00:00 -0,6 -0,8 13 7 - - ESE 0,0
21.01.2017 16:00:00 0,1 -0,7 11 6 - - E 0,0
21.01.2017 15:00:00 3,8 1,6 9 5 - - E 0,0
21.01.2017 14:00:00 3,6 1,4 13 7 - - ESE 0,0
21.01.2017 13:00:00 3,5 0,8 11 6 - - E 0,0
21.01.2017 12:00:00 2,5 0,4 11 6 - - E 0,0
21.01.2017 11:00:00 2,0 0,4 9 5 - - E 0,0
21.01.2017 10:00:00 1,3 -0,9 9 5 - - E 0,0
21.01.2017 09:00:00 1,6 -1,1 9 5 - - SE 0,0
21.01.2017 08:00:00 0,9 -1,0 11 6 - - SSE 0,0
21.01.2017 07:00:00 0,6 -1,4 11 6 - - S 0,0
21.01.2017 06:00:00 1,6 -0,6 9 5 - - SE 0,0
21.01.2017 05:00:00 0,7 -0,6 9 5 - - E 0,0
21.01.2017 04:00:00 0,8 -0,4 9 5 - - ESE 0,0
21.01.2017 03:00:00 0,5 -0,6 9 5 - - SSE 0,0
21.01.2017 02:00:00 0,1 -0,6 15 8 - - SSE 0,0
21.01.2017 01:00:00 0,1 -0,3 13 7 - - SSE 0,0
21.01.2017 00:00:00 0,1 -0,3 11 6 - - SSE 0,0
20.01.2017 23:00:00 0,5 0,1 11 6 - - SSE 0,0
20.01.2017 22:00:00 1,5 1,1 11 6 - - SSE 0,0
20.01.2017 21:00:00 2,8 2,7 5 3 - - SSE 0,0
20.01.2017 20:00:00 2,6 2,4 4 2 - - S 0,0
20.01.2017 19:00:00 2,6 2,4 15 8 - - S 0,0
20.01.2017 18:00:00 2,7 2,5 9 5 - - S 0,0
20.01.2017 17:00:00 2,5 2,3 8 4 - - SSO 0,0
20.01.2017 16:00:00 2,2 2,1 8 4 - - SSO 0,0
20.01.2017 15:00:00 2,0 1,9 4 2 - - S 0,0
20.01.2017 14:00:00 1,9 1,9 8 4 - - SSO 0,0
20.01.2017 13:00:00 2,3 2,3 9 5 - - S 0,0
20.01.2017 12:00:00 2,3 2,3 9 5 - - S 0,0
20.01.2017 11:00:00 2,3 2,3 15 8 - - S 0,0
20.01.2017 10:00:00 3,0 3,0 9 5 - - SSO 0,0
20.01.2017 09:00:00 3,2 3,1 9 5 - - OSO 0,0
20.01.2017 08:00:00 3,3 3,2 9 5 - - SO 0,0
20.01.2017 07:00:00 3,3 3,1 11 6 - - OSO 0,0
20.01.2017 06:00:00 3,5 3,2 9 5 - - OSO 0,0
20.01.2017 05:00:00 3,5 3,2 13 7 - - OSO 0,0
20.01.2017 04:00:00 3,5 3,2 11 6 - - OSO 0,0
20.01.2017 03:00:00 3,9 3,6 13 7 - - OSO 0,0
20.01.2017 02:00:00 4,0 3,4 13 7 - - OSO 0,0
20.01.2017 01:00:00 4,1 3,2 13 7 - - SO 0,0
20.01.2017 00:00:00 4,4 3,4 13 7 - - OSO 0,0
19.01.2017 23:00:00 4,6 3,5 15 8 - - OSO 0,0
19.01.2017 22:00:00 4,7 3,6 15 8 - - OSO 0,0
19.01.2017 21:00:00 4,7 3,7 13 7 - - OSO 0,0
19.01.2017 20:00:00 4,7 3,7 13 7 - - SO 0,0
19.01.2017 19:00:00 4,9 3,8 15 8 - - OSO 0,0
19.01.2017 18:00:00 5,0 3,9 15 8 - - OSO 0,0
19.01.2017 17:00:00 5,1 3,9 16 9 - - OSO 0,0
19.01.2017 16:00:00 5,3 4,1 15 8 - - OSO 0,0
19.01.2017 15:00:00 5,5 4,2 15 8 - - O 0,0
19.01.2017 14:00:00 5,7 4,0 21 11 - - O 0,0
19.01.2017 13:00:00 5,9 3,9 21 11 - - OSO 0,0
19.01.2017 12:00:00 6,0 4,2 18 10 - - OSO 0,0
19.01.2017 11:00:00 6,1 4,6 18 10 - - OSO 0,0
19.01.2017 10:00:00 5,9 4,2 16 9 - - OSO 0,0
19.01.2017 09:00:00 5,7 3,5 16 9 - - OSO 0,0
19.01.2017 08:00:00 5,4 3,6 16 9 - - OSO 0,0
19.01.2017 07:00:00 5,4 3,5 21 11 - - O 0,0
19.01.2017 06:00:00 5,2 3,5 18 10 - - OSO 0,0
19.01.2017 05:00:00 5,2 3,7 21 11 - - OSO 0,0
19.01.2017 04:00:00 5,3 3,8 21 11 - - OSO 0,0
19.01.2017 03:00:00 5,3 3,6 22 12 - - OSO 0,0
19.01.2017 02:00:00 5,5 3,4 24 13 - - OSO 0,0
19.01.2017 01:00:00 5,4 3,9 24 13 - - OSO 0,0
19.01.2017 00:00:00 5,4 4,3 16 9 - - OSO 0,0
18.01.2017 23:00:00 5,4 4,2 21 11 - - OSO 0,0
18.01.2017 22:00:00 5,6 4,3 22 12 - - OSO 0,0
18.01.2017 21:00:00 5,6 4,5 18 10 - - OSO 0,0
18.01.2017 20:00:00 5,7 4,6 15 8 - - OSO 0,0
18.01.2017 19:00:00 5,5 4,7 16 9 - - OSO 0,0
18.01.2017 18:00:00 5,7 4,7 15 8 - - OSO 0,0
18.01.2017 17:00:00 5,8 4,5 21 11 - - SO 0,0
18.01.2017 16:00:00 5,9 4,5 21 11 - - SO 0,0
18.01.2017 15:00:00 6,1 4,5 22 12 - - SO 0,0
18.01.2017 14:00:00 6,3 4,3 29 16 - - SO 0,0
18.01.2017 13:00:00 6,2 5,0 26 14 - - SO 0,0
18.01.2017 12:00:00 6,1 5,0 26 14 - - SO 0,0
18.01.2017 11:00:00 6,1 4,8 24 13 - - SO 0,0
18.01.2017 10:00:00 6,0 4,8 28 15 - - SSO 0,0
18.01.2017 09:00:00 5,9 5,2 24 13 - - SSO 0,0
18.01.2017 08:00:00 5,9 4,9 24 13 - - SSO 0,0
18.01.2017 07:00:00 6,1 5,1 29 16 46 25 OSO 0,0
18.01.2017 06:00:00 6,3 6,2 29 16 - - OSO 0,2
18.01.2017 05:00:00 6,6 6,6 28 15 - - OSO 0,0
18.01.2017 04:00:00 6,5 6,5 21 11 - - SO 0,0
18.01.2017 03:00:00 6,6 6,2 28 15 - - SO 0,0
18.01.2017 02:00:00 6,6 6,1 26 14 - - SO 0,0
18.01.2017 01:00:00 6,3 6,3 22 12 - - SO 0,0
18.01.2017 00:00:00 6,3 6,3 24 13 - - SO 0,2
17.01.2017 23:00:00 6,2 6,2 22 12 - - SSO 0,0
17.01.2017 22:00:00 6,3 6,3 22 12 - - SSO 0,0
17.01.2017 21:00:00 6,4 6,4 24 13 - - SSO 0,0
17.01.2017 20:00:00 6,4 6,4 24 13 - - SSO 0,0
17.01.2017 19:00:00 6,5 6,5 24 13 - - SO 0,2
17.01.2017 18:00:00 6,8 6,8 24 13 - - OSO 0,0

tt = Temperatura
td = dewpoint
ff = velocità del vento
fx = gusts
dd = direzione del vento
rr = precipitazioni

Stazioni seguenti

WeatherPro
AMSI
MeteoEarth